Home   Weather   Selkirk   Past weeks

Flag for Canada Past Weather in Selkirk, Manitoba, Canada — Yesterday and Last 2 Weeks

Now
2 °F

Frigid.


Feels Like: -8 °F
Forecast: -8 / 4 °F
Wind: 5 mph from West

Location: Winnipeg The Forks Man

Current Time: Dec 9, 2016 at 6:00:36 am

Latest Report: Dec 9, 2016 at 5:00 am


Visibility: N/A

Pressure: 30.64 "Hg

Humidity: 70%

Dew Point: -6 °F

Location of SelkirkLocation

Past Weather in Selkirk — Graph

°F

Selkirk Temperature Yesterday

Maximum temperature yesterday: 18 °F (at 2:00 am)
Minimum temperature yesterday: 3 °F (at 11:00 pm)
Average temperature yesterday: 12 °F

High & Low Weather Summary for the Past Weeks

 TemperatureHumidityPressure
High41 °F (Nov 26, 3:00 pm)100% (Nov 27, 8:00 am)30.66 "Hg (Nov 27, 8:00 am)
Low2 °F (Dec 9, 1:00 am)63% (Dec 8, 3:00 pm)29.08 "Hg (Nov 28, 2:00 pm)
Average29 °F87%29.89 "Hg
* Reported Nov 24 4:00 am — Dec 9 4:00 am, Selkirk, Weather by CustomWeather, © 2016

Note: Actual official high and low records may vary slightly from our data, if they occured in-between our weather recording intervals... More about our weather records

Advertising

Selkirk Weather History for the Previous 24 Hours

Scroll right to see more
 ConditionsComfort  
Time TempWeatherWind HumidityBarometerVisibility
4:00 am
Fri, Dec 9
2 °FFrigid.3 mph71%30.64 "HgN/A
3:00 am2 °FFrigid.3 mph73%30.64 "HgN/A
2:00 am2 °FFrigid.3 mph71%30.64 "HgN/A
1:00 am2 °FFrigid.5 mph68%30.65 "HgN/A
12:00 am3 °FFrigid.6 mph70%30.64 "HgN/A
11:00 pm
Thu, Dec 8
3 °FFrigid.7 mph70%30.63 "HgN/A
10:00 pm4 °FFrigid.6 mph71%30.63 "HgN/A
9:00 pm5 °FFrigid.7 mph71%30.63 "HgN/A
8:00 pm6 °FFrigid.6 mph75%30.64 "HgN/A
7:00 pm5 °FFrigid.9 mph72%30.66 "HgN/A
6:00 pm8 °FFrigid.7 mph73%30.65 "HgN/A
5:00 pm10 °FFrigid.6 mph68%30.65 "HgN/A
4:00 pm7 °FFrigid.7 mph73%30.63 "HgN/A
3:00 pm11 °FCold.7 mph63%30.62 "HgN/A
2:00 pm12 °FCold.6 mph73%30.61 "HgN/A
1:00 pm12 °FCold.7 mph71%30.60 "HgN/A
12:00 pm13 °FCold.9 mph74%30.58 "HgN/A
11:00 am14 °FCold.8 mph76%30.58 "HgN/A
10:00 am14 °FCold.7 mph78%30.56 "HgN/A
9:00 am15 °FCold.8 mph79%30.53 "HgN/A
8:00 am15 °FCold.8 mph86%30.51 "HgN/A
7:00 am17 °FCold.8 mph75%30.48 "HgN/A
6:00 am16 °FCold.6 mph82%30.45 "HgN/A
Weather by CustomWeather, © 2016

See weather overviewHow to use our weather pages